Weather History for Okmulgee, OK

Change the Weather History Date:

Wednesday, July 24, 2013

  Actual Average (KMKO) Record (KMKO)
Temperature  
Mean Temperature 76 °F -  
Max Temperature 87 °F 90 °F 108 °F (2011)
Min Temperature 67 °F 69 °F 59 °F (2003)
Cooling Degree Days 12    
Growing Degree Days 26 (Base 50)    
Moisture  
Dew Point 69 °F    
Average Humidity 81    
Maximum Humidity 97    
Minimum Humidity 57    
Precipitation  
Precipitation 1.50 in - - ()
Sea Level Pressure  
Sea Level Pressure 29.97 in    
Wind  
Wind Speed 13 mph (NE)    
Max Wind Speed 44 mph    
Max Gust Speed 55 mph    
Visibility 10 miles    
Events Rain , Thunderstorm    
Averages and records for this station are not official NWS values.
T = Trace of Precipitation, MM = Missing Value Source: NWS Daily Summary

Daily Weather History Graph

Daily Weather History Graph

Search for Another Location

Airport:

Trip Planner

Search our weather history database for the weather conditions in past years. The results will help you decide how hot, cold, wet, or windy it might be!

Date:

Astronomy

Jul. 24, 2013 Rise Set
Actual Time 6:25 AM CDT 8:34 PM CDT
Civil Twilight 5:57 AM CDT 9:02 PM CDT
Nautical Twilight 5:22 AM CDT 9:37 PM CDT
Astronomical Twilight 4:44 AM CDT 10:15 PM CDT
Moon 9:48 PM CDT (7/24) 8:40 AM CDT (7/24)
Length of Visible Light 15h 05m
Length of Day
14h 08m
Waning Gibbous, 94% of the Moon is Illuminated
Jul 24
Waning Gibbous
Jul 29
Last Quarter
Aug 6
New
Aug 14
First Quarter
Aug 20
Full

Hourly Weather History & Observations

Time (CDT) Temp. Heat Index Dew Point Humidity Pressure Visibility Wind Dir Wind Speed Gust Speed Precip Events Conditions
12:15 AM 73.8 °F - 66.9 °F 79% 29.93 in 5.0 mi North 43.7 mph 55.2 mph 0.03 in Rain Heavy Rain
12:35 AM 68.0 °F - 66.6 °F 95% 29.92 in 1.2 mi North 23.0 mph 49.5 mph 0.47 in Rain , Thunderstorm Heavy Thunderstorms and Rain
12:55 AM 68.9 °F - 67.3 °F 95% 29.89 in 1.2 mi North 20.7 mph 34.5 mph 0.87 in Rain , Thunderstorm Heavy Thunderstorms and Rain
1:15 AM 69.6 °F - 67.5 °F 93% 29.91 in 10.0 mi ENE 10.4 mph 18.4 mph N/A Rain , Thunderstorm Light Thunderstorms and Rain
1:35 AM 69.8 °F - 67.5 °F 92% 29.92 in 10.0 mi East 5.8 mph - N/A Thunderstorm Overcast
1:55 AM 69.1 °F - 67.5 °F 95% 30.02 in 1.8 mi NE 15.0 mph 18.4 mph 0.48 in Rain , Thunderstorm Heavy Thunderstorms and Rain
2:15 AM 67.6 °F - 66.6 °F 96% 30.00 in 7.0 mi ESE 3.5 mph - 0.06 in Rain , Thunderstorm Light Thunderstorms and Rain
2:35 AM 68.4 °F - 67.1 °F 96% 29.98 in 7.0 mi SSE 8.1 mph - 0.10 in Rain , Thunderstorm Thunderstorms and Rain
2:55 AM 68.4 °F - 67.3 °F 96% 29.97 in 10.0 mi South 6.9 mph - 0.13 in Rain , Thunderstorm Light Thunderstorms and Rain
3:15 AM 68.4 °F - 67.5 °F 97% 29.93 in 10.0 mi South 11.5 mph - N/A Thunderstorm Scattered Clouds
3:35 AM 69.3 °F - 67.8 °F 95% 29.94 in 10.0 mi SE 10.4 mph - N/A   Scattered Clouds
3:55 AM 70.3 °F - 68.9 °F 95% 29.95 in 10.0 mi SSE 10.4 mph 17.3 mph N/A   Mostly Cloudy
4:15 AM 70.7 °F - 68.5 °F 93% 29.95 in 10.0 mi SE 21.9 mph 25.3 mph N/A   Mostly Cloudy
4:35 AM 70.3 °F - 68.2 °F 93% 29.93 in 10.0 mi SSE 20.7 mph 25.3 mph N/A   Scattered Clouds
4:55 AM 70.5 °F - 68.4 °F 93% 29.94 in 10.0 mi SE 13.8 mph 23.0 mph N/A Rain Light Rain
5:15 AM 70.5 °F - 68.2 °F 92% 29.95 in 10.0 mi South 9.2 mph - N/A   Scattered Clouds
5:35 AM 70.2 °F - 67.6 °F 92% 29.97 in 10.0 mi SW 5.8 mph 27.6 mph N/A   Clear
5:55 AM 69.8 °F - 67.8 °F 93% 30.00 in 10.0 mi West 9.2 mph - N/A Rain Light Rain
6:15 AM 69.3 °F - 68.0 °F 96% 29.91 in 10.0 mi SSW 20.7 mph 26.5 mph 0.02 in Rain , Thunderstorm Light Thunderstorms and Rain
6:35 AM 70.0 °F - 66.9 °F 90% 29.94 in 10.0 mi SSE 9.2 mph - 0.02 in Rain Light Rain
6:55 AM 69.8 °F - 66.9 °F 91% 29.92 in 10.0 mi South 10.4 mph - 0.02 in   Clear
7:15 AM 69.8 °F - 66.6 °F 89% 29.95 in 10.0 mi SW 6.9 mph 20.7 mph N/A   Clear
7:35 AM 69.3 °F - 66.7 °F 92% 29.93 in 10.0 mi SW 3.5 mph - N/A   Clear
7:55 AM 68.9 °F - 66.7 °F 93% 29.92 in 10.0 mi West 3.5 mph - N/A   Clear
8:15 AM 68.9 °F - 67.1 °F 94% 29.94 in 10.0 mi West 6.9 mph - N/A   Clear
8:35 AM 68.5 °F - 67.1 °F 95% 29.94 in 10.0 mi West 9.2 mph - N/A   Clear
8:55 AM 69.1 °F - 67.5 °F 95% 29.95 in 10.0 mi Calm Calm - N/A   Clear
9:15 AM 70.0 °F - 68.0 °F 93% 29.95 in 10.0 mi North 4.6 mph - N/A   Clear
9:35 AM 71.1 °F - 68.0 °F 90% 29.95 in 10.0 mi NNW 4.6 mph - N/A   Clear
9:55 AM 72.7 °F - 68.9 °F 88% 29.96 in 10.0 mi NNW 5.8 mph - N/A   Clear
10:15 AM 73.8 °F - 68.9 °F 85% 29.97 in 10.0 mi NNW 5.8 mph - N/A   Clear
10:35 AM 74.7 °F - 69.1 °F 83% 29.98 in 10.0 mi NNW 8.1 mph - N/A   Mostly Cloudy
10:55 AM 76.1 °F - 69.6 °F 80% 29.99 in 10.0 mi NW 5.8 mph - N/A   Overcast
11:15 AM 76.6 °F - 69.6 °F 79% 29.99 in 10.0 mi North 6.9 mph - N/A   Overcast
11:35 AM 77.9 °F - 69.3 °F 75% 30.00 in 10.0 mi North 6.9 mph - N/A   Overcast
11:55 AM 79.0 °F - 69.4 °F 72% 30.00 in 10.0 mi NNW 5.8 mph - N/A   Overcast
12:15 PM 79.0 °F - 69.1 °F 72% 30.00 in 10.0 mi North 6.9 mph - N/A   Overcast
12:35 PM 79.5 °F - 69.6 °F 72% 30.00 in 10.0 mi North 6.9 mph - N/A   Overcast
12:55 PM 80.4 °F 83.5 °F 69.6 °F 69% 30.00 in 10.0 mi North 6.9 mph - N/A   Overcast
1:15 PM 80.8 °F 84.2 °F 70.2 °F 70% 29.99 in 10.0 mi North 4.6 mph - N/A   Mostly Cloudy
1:35 PM 81.3 °F 85.0 °F 70.2 °F 69% 29.99 in 10.0 mi NNE 6.9 mph - N/A   Mostly Cloudy
1:55 PM 82.9 °F 87.0 °F 70.2 °F 65% 29.99 in 10.0 mi North 6.9 mph - N/A   Overcast
2:15 PM 83.7 °F 88.3 °F 70.7 °F 65% 29.99 in 10.0 mi ENE 5.8 mph - N/A   Mostly Cloudy
2:35 PM 83.5 °F 87.4 °F 69.8 °F 63% 29.99 in 10.0 mi NNE 6.9 mph - N/A   Mostly Cloudy
2:55 PM 84.7 °F 89.7 °F 71.1 °F 63% 29.99 in 10.0 mi North 5.8 mph - N/A   Scattered Clouds
3:15 PM 84.2 °F 88.4 °F 70.0 °F 62% 29.98 in 10.0 mi NNE 3.5 mph - N/A   Scattered Clouds
3:35 PM 85.1 °F 90.1 °F 70.7 °F 62% 29.98 in 10.0 mi North 3.5 mph - N/A   Scattered Clouds
3:55 PM 84.6 °F 89.7 °F 71.1 °F 64% 29.98 in 10.0 mi North - - N/A   Mostly Cloudy
4:15 PM 85.5 °F 90.8 °F 70.9 °F 62% 29.98 in 10.0 mi NE 5.8 mph - N/A   Mostly Cloudy
4:35 PM 84.2 °F 88.7 °F 70.3 °F 63% 29.97 in 10.0 mi ENE 6.9 mph - N/A   Scattered Clouds
4:55 PM 86.7 °F 92.1 °F 70.9 °F 59% 29.97 in 10.0 mi ENE 9.2 mph - N/A   Mostly Cloudy
5:15 PM 86.4 °F 91.4 °F 70.3 °F 59% 29.97 in 10.0 mi East 8.1 mph - N/A   Mostly Cloudy
5:35 PM 86.7 °F 91.7 °F 70.5 °F 58% 29.96 in 10.0 mi ENE 3.5 mph - N/A   Scattered Clouds
5:55 PM 86.7 °F 91.4 °F 69.6 °F 57% 29.96 in 10.0 mi ENE 8.1 mph - N/A   Mostly Cloudy
6:15 PM 85.6 °F 89.7 °F 69.4 °F 58% 29.95 in 10.0 mi East 5.8 mph - N/A   Scattered Clouds
6:35 PM 85.3 °F 90.1 °F 70.3 °F 61% 29.95 in 10.0 mi ESE 6.9 mph - N/A   Scattered Clouds
6:55 PM 85.5 °F 89.8 °F 69.6 °F 59% 29.95 in 10.0 mi East 4.6 mph - N/A   Scattered Clouds
7:15 PM 84.6 °F 88.8 °F 70.0 °F 61% 29.96 in 10.0 mi East 6.9 mph - N/A   Scattered Clouds
7:35 PM 84.2 °F 89.0 °F 70.9 °F 64% 29.96 in 10.0 mi SE 3.5 mph - N/A   Clear
7:55 PM 83.1 °F 87.8 °F 71.2 °F 67% 29.96 in 10.0 mi Calm Calm - N/A   Clear
8:15 PM 82.2 °F 86.6 °F 71.2 °F 69% 29.97 in 10.0 mi Calm Calm - N/A   Clear
8:35 PM 81.0 °F 86.2 °F 73.8 °F 79% 29.97 in 10.0 mi Calm Calm - N/A   Clear
8:55 PM 76.5 °F - 73.0 °F 89% 29.97 in 10.0 mi Calm Calm - N/A   Clear
9:15 PM 75.6 °F - 72.3 °F 90% 29.97 in 10.0 mi Calm Calm - N/A   Clear
9:35 PM 75.0 °F - 72.9 °F 93% 29.98 in 10.0 mi Calm Calm - N/A   Clear
9:55 PM 74.7 °F - 72.5 °F 93% 30.00 in 10.0 mi Calm Calm - N/A   Clear
10:15 PM 75.2 °F - 73.2 °F 94% 30.00 in 10.0 mi Calm Calm - N/A   Clear
10:35 PM 73.8 °F - 72.1 °F 95% 30.01 in 10.0 mi Calm Calm - N/A   Clear
10:55 PM 73.8 °F - 72.7 °F 96% 30.01 in 10.0 mi Calm Calm - N/A   Clear
11:15 PM 73.9 °F - 72.1 °F 94% 30.01 in 10.0 mi Calm Calm - N/A   Clear
11:35 PM 72.7 °F - 71.6 °F 96% 30.01 in 10.0 mi West 3.5 mph - N/A   Clear
11:55 PM 73.4 °F - 71.6 °F 94% 30.02 in 10.0 mi Calm Calm - N/A   Clear